Weather History for Escanaba, MI

Change the Weather History Date:

Friday, January 31, 2014

  Actual Average Record
Temperature  
Mean Temperature -2 °F -  
Max Temperature 10 °F 26 °F 46 °F (1993)
Min Temperature -13 °F 6 °F -13 °F (2014)
Degree Days  
Heating Degree Days 66    
Moisture  
Dew Point -4 °F    
Average Humidity 73    
Maximum Humidity 100    
Minimum Humidity 54    
Precipitation  
Precipitation 0.00 in - - ()
Sea Level Pressure  
Sea Level Pressure 29.98 in    
Wind  
Wind Speed 7 mph (WSW)    
Max Wind Speed 15 mph    
Max Gust Speed 16 mph    
Visibility 10 miles    
Events      
Averages and records for this station are not official NWS values.
T = Trace of Precipitation, MM = Missing Value Source: NWS Daily Summary

Daily Weather History Graph

Daily Weather History Graph

Search for Another Location

Airport:

Trip Planner

Search our weather history database for the weather conditions in past years. The results will help you decide how hot, cold, wet, or windy it might be!

Date:

Astronomy

Jan. 31, 2014 Rise Set
Actual Time 8:11 AM EST 5:53 PM EST
Civil Twilight 7:39 AM EST 6:24 PM EST
Nautical Twilight 7:03 AM EST 7:00 PM EST
Astronomical Twilight 6:28 AM EST 7:35 PM EST
Moon 8:15 AM EST 7:23 PM EST
Length of Visible Light 10h 45m
Length of Day
9h 42m
New Moon, 1% of the Moon is Illuminated
Jan 31
New Moon
Feb 6
First Quarter
Feb 14
Full
Feb 22
Last Quarter
Mar 1
New

Hourly Weather History & Observations

Time (EST) Temp. Windchill Dew Point Humidity Pressure Visibility Wind Dir Wind Speed Gust Speed Precip Events Conditions
12:15 AM 10.4 °F -3.3 °F 1.4 °F 67% 29.79 in 10.0 mi WNW 10.4 mph 16.1 mph N/A   Mostly Cloudy
12:35 AM 10.4 °F -1.5 °F 3.2 °F 73% 29.80 in 10.0 mi NW 8.1 mph - N/A   Overcast
12:55 AM 10.4 °F -0.4 °F 3.2 °F 73% 29.81 in 10.0 mi NW 6.9 mph - N/A   Overcast
1:15 AM 8.6 °F 2.0 °F 1.4 °F 73% 29.81 in 10.0 mi West 3.5 mph - N/A   Mostly Cloudy
1:35 AM 6.8 °F -0.1 °F 1.4 °F 79% 29.83 in 10.0 mi WSW 3.5 mph - N/A   Mostly Cloudy
1:55 AM 3.2 °F -4.2 °F -0.4 °F 85% 29.83 in 10.0 mi SW 3.5 mph - N/A   Overcast
2:15 AM 3.2 °F -6.2 °F -0.4 °F 85% 29.84 in 10.0 mi WSW 4.6 mph - N/A   Overcast
2:35 AM 5.0 °F -5.6 °F 5.0 °F 100% 29.86 in 10.0 mi SW 5.8 mph - N/A   Overcast
2:55 AM 6.8 °F -4.8 °F 1.4 °F 79% 29.86 in 10.0 mi West 6.9 mph - N/A   Overcast
3:15 AM 5.0 °F -6.9 °F -0.4 °F 78% 29.87 in 10.0 mi West 6.9 mph - N/A   Overcast
3:35 AM 5.0 °F -8.1 °F -0.4 °F 78% 29.87 in 10.0 mi West 8.1 mph - N/A   Overcast
3:55 AM 5.0 °F -6.9 °F -0.4 °F 78% 29.88 in 10.0 mi West 6.9 mph - N/A   Overcast
4:15 AM 3.2 °F -7.8 °F -2.2 °F 78% 29.88 in 4.0 mi West 5.8 mph - N/A   Scattered Clouds
4:35 AM 1.4 °F -11.3 °F -4.0 °F 78% 29.89 in 10.0 mi West 6.9 mph - N/A   Partly Cloudy
4:55 AM 1.4 °F -9.9 °F -0.4 °F 92% 29.90 in 10.0 mi West 5.8 mph - N/A   Clear
5:15 AM -0.4 °F -12.0 °F -7.6 °F 72% 29.90 in 10.0 mi West 5.8 mph - N/A   Clear
5:35 AM -0.4 °F -12.0 °F -4.0 °F 85% 29.92 in 10.0 mi West 5.8 mph - N/A   Clear
5:55 AM -2.2 °F -18.0 °F -9.4 °F 71% 29.93 in 10.0 mi WSW 9.2 mph - N/A   Clear
6:15 AM -0.4 °F -14.7 °F -4.0 °F 85% 29.94 in 10.0 mi WSW 8.1 mph - N/A   Clear
6:35 AM -0.4 °F -14.7 °F -4.0 °F 85% 29.95 in 10.0 mi West 8.1 mph - N/A   Clear
6:55 AM -0.4 °F -13.4 °F -5.8 °F 78% 29.95 in 10.0 mi West 6.9 mph - N/A   Clear
7:15 AM -2.2 °F -15.6 °F -7.6 °F 78% 29.95 in 10.0 mi West 6.9 mph - N/A   Clear
7:35 AM -2.2 °F -14.2 °F -5.8 °F 85% 29.96 in 10.0 mi West 5.8 mph - N/A   Clear
7:55 AM -2.2 °F -15.6 °F -9.4 °F 71% 29.96 in 10.0 mi West 6.9 mph - N/A   Clear
8:15 AM -2.2 °F -16.8 °F -7.6 °F 78% 29.97 in 10.0 mi WNW 8.1 mph - N/A   Clear
8:35 AM -2.2 °F -15.6 °F -5.8 °F 85% 29.98 in 10.0 mi West 6.9 mph - N/A   Clear
8:55 AM -2.2 °F -16.8 °F -9.4 °F 71% 29.98 in 10.0 mi West 8.1 mph - N/A   Clear
9:15 AM -0.4 °F -15.7 °F -5.8 °F 78% 29.99 in 10.0 mi WNW 9.2 mph - N/A   Clear
9:35 AM -0.4 °F -16.7 °F -7.6 °F 72% 30.01 in 10.0 mi West 10.4 mph - N/A   Clear
9:55 AM 1.4 °F -14.5 °F -5.8 °F 72% 30.00 in 10.0 mi WNW 10.4 mph - N/A   Clear
10:15 AM 1.4 °F -17.6 °F -5.8 °F 72% 30.00 in 10.0 mi WNW 15.0 mph - N/A   Clear
10:35 AM 3.2 °F -13.1 °F -5.8 °F 66% 30.02 in 10.0 mi WNW 11.5 mph - N/A   Clear
10:55 AM 3.2 °F -13.1 °F -5.8 °F 66% 30.03 in 10.0 mi West 11.5 mph - N/A   Clear
11:15 AM 3.2 °F -13.1 °F -5.8 °F 66% 30.03 in 10.0 mi West 11.5 mph - N/A   Clear
11:35 AM 3.2 °F -12.2 °F -2.2 °F 78% 30.04 in 10.0 mi West 10.4 mph - N/A   Clear
11:55 AM 5.0 °F -10.8 °F -5.8 °F 61% 30.04 in 10.0 mi West 11.5 mph - N/A   Clear
12:15 PM 6.8 °F -8.6 °F -4.0 °F 61% 30.05 in 10.0 mi West 11.5 mph - N/A   Clear
12:35 PM 6.8 °F -7.8 °F -5.8 °F 56% 30.04 in 10.0 mi West 10.4 mph - N/A   Clear
12:55 PM 6.8 °F -8.6 °F -4.0 °F 61% 30.04 in 10.0 mi West 11.5 mph - N/A   Clear
1:15 PM 6.8 °F -8.6 °F -4.0 °F 61% 30.03 in 10.0 mi West 11.5 mph - N/A   Clear
1:35 PM 6.8 °F -8.6 °F -2.2 °F 67% 30.03 in 10.0 mi West 11.5 mph - N/A   Clear
1:55 PM 6.8 °F -9.3 °F -4.0 °F 61% 30.03 in 10.0 mi West 12.7 mph - N/A   Clear
2:15 PM 8.6 °F -6.3 °F -2.2 °F 62% 30.02 in 10.0 mi West 11.5 mph - N/A   Clear
2:35 PM 8.6 °F 0.1 °F -4.0 °F 57% 30.03 in 10.0 mi West 4.6 mph - N/A   Clear
2:55 PM 8.6 °F -1.3 °F -2.2 °F 62% 30.03 in 10.0 mi West 5.8 mph - N/A   Clear
3:15 PM 8.6 °F -5.5 °F -2.2 °F 62% 30.03 in 10.0 mi West 10.4 mph - N/A   Clear
3:35 PM 10.4 °F -2.4 °F -2.2 °F 57% 30.03 in 10.0 mi West 9.2 mph - N/A   Clear
3:55 PM 10.4 °F -1.5 °F -0.4 °F 62% 30.03 in 10.0 mi West 8.1 mph - N/A   Clear
4:15 PM 10.4 °F 0.8 °F -2.2 °F 57% 30.03 in 10.0 mi WSW 5.8 mph - N/A   Clear
4:35 PM 10.4 °F 0.8 °F -0.4 °F 62% 30.03 in 10.0 mi SW 5.8 mph - N/A   Clear
4:55 PM 10.4 °F -2.4 °F -2.2 °F 57% 30.02 in 10.0 mi SW 9.2 mph - N/A   Clear
5:15 PM 8.6 °F -4.7 °F 1.4 °F 73% 30.02 in 10.0 mi South 9.2 mph - N/A   Clear
5:35 PM 8.6 °F -4.7 °F -0.4 °F 67% 30.02 in 10.0 mi South 9.2 mph - N/A   Clear
5:55 PM 6.8 °F -4.8 °F -2.2 °F 67% 30.02 in 10.0 mi South 6.9 mph - N/A   Clear
6:15 PM 3.2 °F -7.8 °F -2.2 °F 78% 30.02 in 10.0 mi SSW 5.8 mph - N/A   Clear
6:35 PM 3.2 °F -10.3 °F -2.2 °F 78% 30.02 in 10.0 mi South 8.1 mph - N/A   Clear
6:55 PM 3.2 °F -7.8 °F -2.2 °F 78% 30.03 in 10.0 mi South 5.8 mph - N/A   Clear
7:15 PM 1.4 °F -9.9 °F -2.2 °F 85% 30.02 in 10.0 mi SSW 5.8 mph - N/A   Clear
7:35 PM 1.4 °F -11.3 °F -5.8 °F 72% 30.02 in 10.0 mi South 6.9 mph - N/A   Clear
7:55 PM 1.4 °F -9.9 °F -4.0 °F 78% 30.02 in 10.0 mi South 5.8 mph - N/A   Clear
8:15 PM -0.4 °F -14.7 °F -5.8 °F 78% 30.02 in 10.0 mi SSW 8.1 mph - N/A   Clear
8:35 PM -0.4 °F -14.7 °F -5.8 °F 78% 30.03 in 10.0 mi SSW 8.1 mph - N/A   Clear
8:55 PM -0.4 °F -12.0 °F -7.6 °F 72% 30.03 in 10.0 mi SW 5.8 mph - N/A   Clear
9:15 PM -2.2 °F - -7.6 °F 78% 30.02 in 10.0 mi Calm Calm - N/A   Clear
9:35 PM -2.2 °F - -7.6 °F 78% 30.03 in 10.0 mi Calm Calm - N/A   Clear
9:55 PM -4.0 °F -12.4 °F -9.4 °F 78% 30.03 in 10.0 mi SSW 3.5 mph - N/A   Clear
10:15 PM -4.0 °F -12.4 °F -5.8 °F 92% 30.03 in 10.0 mi West 3.5 mph - N/A   Clear
10:35 PM -7.6 °F - -14.8 °F 71% 30.02 in 10.0 mi Calm Calm - N/A   Clear
10:55 PM -7.6 °F - -11.2 °F 84% 30.03 in 10.0 mi Calm Calm - N/A   Clear
11:15 PM -13.0 °F - -23.8 °F 59% 30.03 in 10.0 mi Calm Calm - N/A   Clear
11:35 PM -11.2 °F - -23.8 °F 54% 30.03 in 10.0 mi Calm Calm - N/A   Clear
11:55 PM -13.0 °F - -13.0 °F 100% 30.04 in 10.0 mi Calm Calm - N/A   Clear